Location: Denver
(39.7392°N, 104.9903°W)
Time: 19:53:02
(UTC-07:00)

ISS - Visible Passes

Search period start: 08 December 2019 00:00
Search period end: 18 December 2019 00:00
Orbit: 411 x 421 km, 51.6° (Epoch: 09 December)

Date Brightness Start Highest point End Pass type
(mag) Time Alt. Az. Time Alt. Az. Time Alt. Az.
08 Dec -3.9 18:12:10 10° NW 18:15:31 75° NE 18:15:48 68° E visible
09 Dec -3.4 17:23:48 10° NW 17:27:01 43° NNE 17:30:15 10° ESE visible
09 Dec -1.2 19:01:01 10° W 19:03:14 20° WSW 19:03:14 20° WSW visible
10 Dec -2.2 18:12:08 10° WNW 18:15:14 35° SW 18:18:07 11° SSE visible
11 Dec -3.4 17:23:30 10° WNW 17:26:49 66° SW 17:30:08 10° SE visible
12 Dec -0.4 18:13:14 10° WSW 18:14:41 12° SW 18:16:08 10° SSW visible
13 Dec -0.9 17:23:44 10° W 17:26:22 22° SW 17:29:00 10° S visible
